METEOSAT-9 (MSG-2)
Last updated on Sun Jun 21 2026 00:02:46 GMT+0000 (Coordinated Universal Time)
1 28912U 05049B 26170.92883707 .00000115 00000+0 00000+0 0 9995
2 28912 9.3683 54.1432 0001774 346.4633 247.5699 1.00273646 7020
Next 0 passes for location: London (51.5072 / 0.1276)
No passes found over London.